Location: Newark
(54.6833°N, 25.2833°E)
Time: 16:15:04
(UTC+00:00)

Altair - Pass Details

Date: 21 November 2019
Orbit: 1502 x 1682 km, 47.2° (Epoch: 09 December)

Event Time Altitude Azimuth Distance (km) Brightness Sun altitude
Rises 05:18:11 0° 275° (W) 4,639 - -6.1°
Exits shadow 05:19:11 - 273° (W) 4,325 9.3 -5.9°
Reaches altitude 10° 05:21:20 10° 269° (W) 3,662 8.9 -5.6°
Maximum altitude 05:29:54 46° 201° (SSW) 1,969 8.2 -4.6°
Drops below altitude 10° 05:38:40 10° 132° (SE) 3,746 11.3 -3.4°
Sets 05:41:56 0° 127° (SE) 4,753 12.9 -3.0°
